| time (UTC) | temp F | wind direction | speed MPH | gust MPH | rain 1hr in | rain 24hr in | rain mn in | humidity % | barometer mb |
| 20260506093503 | 56 | 315 | 3.0 | 4.0 | 0.00 | 0.01 | 0.00 | 81 | 1018.9 |
| 20260506090503 | 57 | 315 | 2.0 | 2.0 | 0.00 | 0.01 | 0.00 | 81 | 1018.7 |
| 20260506083503 | 57 | 0 | 0.0 | 1.0 | 0.00 | 0.02 | 0.00 | 81 | 1018.7 |
| 20260506080511 | 57 | 292 | 3.0 | 6.0 | 0.00 | 0.04 | 0.00 | 81 | 1018.8 |
| 20260506073503 | 57 | 270 | 2.0 | 3.0 | 0.00 | 0.07 | 0.00 | 82 | 1018.5 |
| 20260506070504 | 57 | 292 | 2.0 | 4.0 | 0.00 | 0.08 | 0.00 | 82 | 1018.4 |
| 20260506060609 | 58 | 292 | 3.0 | 4.0 | 0.00 | 0.09 | 0.08 | 81 | 1018.1 |
| 20260506060503 | 58 | 292 | 3.0 | 4.0 | 0.00 | 0.09 | 0.08 | 81 | 1018.1 |
| 20260506050503 | 58 | 248 | 5.0 | 9.0 | 0.00 | 0.11 | 0.08 | 81 | 1017.8 |
| 20260506043511 | 58 | 270 | 2.0 | 4.0 | 0.00 | 0.13 | 0.08 | 82 | 1017.6 |
| 20260506040509 | 58 | 270 | 5.0 | 8.0 | 0.00 | 0.13 | 0.08 | 80 | 1017.0 |
| 20260506033503 | 58 | 248 | 3.0 | 6.0 | 0.00 | 0.13 | 0.08 | 79 | 1016.5 |
| 20260506030503 | 59 | 225 | 5.0 | 9.0 | 0.00 | 0.13 | 0.08 | 77 | 1016.4 |
| 20260506023503 | 60 | 225 | 8.0 | 10.0 | 0.00 | 0.13 | 0.08 | 76 | 1016.2 |
| 20260506020503 | 61 | 270 | 4.0 | 7.0 | 0.00 | 0.13 | 0.08 | 73 | 1015.8 |
| 20260506013504 | 62 | 270 | 4.0 | 10.0 | 0.00 | 0.13 | 0.08 | 71 | 1015.9 |
| 20260506010503 | 64 | 270 | 6.0 | 9.0 | 0.00 | 0.13 | 0.08 | 69 | 1015.8 |
| 20260506003503 | 64 | 270 | 8.0 | 11.0 | 0.00 | 0.13 | 0.08 | 69 | 1015.7 |
| 20260506000503 | 63 | 248 | 10.0 | 16.0 | 0.00 | 0.13 | 0.08 | 71 | 1015.6 |
| 20260505233503 | 64 | 292 | 6.0 | 11.0 | 0.00 | 0.13 | 0.08 | 69 | 1015.7 |
| 20260505230503 | 66 | 270 | 7.0 | 12.0 | 0.00 | 0.13 | 0.08 | 66 | 1015.5 |
| 20260505223503 | 64 | 292 | 7.0 | 12.0 | 0.00 | 0.13 | 0.08 | 69 | 1015.4 |
| 20260505220503 | 63 | 292 | 9.0 | 12.0 | 0.00 | 0.13 | 0.08 | 70 | 1015.6 |
| 20260505213503 | 64 | 225 | 9.0 | 13.0 | 0.00 | 0.13 | 0.08 | 69 | 1015.8 |
| 20260505210503 | 64 | 225 | 6.0 | 10.0 | 0.00 | 0.13 | 0.08 | 69 | 1015.9 |
| 20260505203513 | 64 | 270 | 7.0 | 11.0 | 0.00 | 0.13 | 0.08 | 68 | 1015.8 |
| 20260505200503 | 65 | 270 | 8.0 | 12.0 | 0.00 | 0.13 | 0.08 | 69 | 1015.9 |
| 20260505193511 | 64 | 248 | 5.0 | 11.0 | 0.00 | 0.13 | 0.08 | 71 | 1015.9 |
| 20260505190503 | 63 | 270 | 11.0 | 15.0 | 0.00 | 0.13 | 0.08 | 71 | 1015.9 |
| 20260505183503 | 62 | 292 | 7.0 | 11.0 | 0.00 | 0.13 | 0.08 | 73 | 1015.9 |
| 20260505180503 | 61 | 225 | 4.0 | 10.0 | 0.00 | 0.13 | 0.08 | 77 | 1015.8 |
| 20260505173503 | 59 | 292 | 6.0 | 9.0 | 0.00 | 0.13 | 0.08 | 81 | 1015.6 |
| 20260505170504 | 58 | 292 | 4.0 | 10.0 | 0.00 | 0.13 | 0.08 | 84 | 1015.4 |
| 20260505163503 | 58 | 292 | 5.0 | 10.0 | 0.00 | 0.13 | 0.08 | 85 | 1015.5 |
| 20260505160503 | 57 | 270 | 5.0 | 9.0 | 0.00 | 0.13 | 0.08 | 86 | 1015.3 |
| 20260505150503 | 56 | 248 | 3.0 | 8.0 | 0.00 | 0.13 | 0.08 | 87 | 1014.9 |
| 20260505140503 | 56 | 248 | 2.0 | 4.0 | 0.00 | 0.13 | 0.08 | 86 | 1014.6 |
| 20260505123503 | 54 | 270 | 2.0 | 6.0 | 0.00 | 0.13 | 0.08 | 86 | 1014.3 |
| 20260505120510 | 54 | 248 | 3.0 | 4.0 | 0.00 | 0.13 | 0.08 | 86 | 1014.1 |
| 20260505113503 | 54 | 248 | 4.0 | 5.0 | 0.00 | 0.13 | 0.08 | 86 | 1014.4 |
| 20260505110503 | 53 | 292 | 1.0 | 2.0 | 0.00 | 0.13 | 0.08 | 86 | 1014.3 |
| 20260505100510 | 54 | 270 | 2.0 | 4.0 | 0.01 | 0.13 | 0.08 | 88 | 1014.5 |